[[{"header":{"parameterUnit":"m.s-1","parameterCategory":1,"la1":30.2991,"la2":30.254,"lo1":-89.0895,"lo2":-89.0444,"dy":0.0017,"dx":0.0017,"nx":28,"ny":28,"refTime":"2024-08-09T03:00:00:Z","depth":0,"parameterNumber":2,"parameterNumberName":"U-component_of_WINDS"},"data":[0,0,0,0,0,0,0,0,0,0,0,0,0,0,0,0,0,0,0,0,0,0,0,0,0,0,0,0,0,0,0,0,0,0,0,0,0,0,0,0,0,0,0,0,0,0,0,0,0,0,0,0,0,0,0,0,0,0,4.4981,4.4981,0,4.5023,4.5024,4.5024,4.4997,4.4995,4.4994,4.4993,4.5037,4.5039,4.5042,0,0,0,0,0,0,0,0,0,0,0,0,0,4.4879,4.4881,4.4981,4.4981,4.4982,4.5023,4.5024,4.5024,4.4997,4.4995,4.4994,4.4992,4.5036,4.5039,4.5042,0,0,0,0,0,0,0,0,0,0,0,0,0,4.4923,4.4882,4.4981,4.4973,4.4973,4.5023,4.5024,4.5025,4.4997,4.4995,4.4993,4.4992,4.5035,4.5039,4.5042,4.5103,0,0,4.5053,4.5055,0,0,0,0,0,0,0,0,4.492,4.4927,4.4974,4.4974,4.4974,4.5003,4.5004,4.5051,4.4998,4.4988,4.4993,4.4991,4.5027,4.5031,4.5043,4.5105,4.5106,4.5053,4.5056,4.5057,4.5058,0,0,0,0,0,0,0,4.4917,4.4925,4.4998,4.4974,4.4974,4.4969,4.4973,4.5013,4.5018,4.4989,4.4987,4.4992,4.5027,4.504,4.5044,4.5107,4.5053,4.5056,4.5059,4.506,4.5225,4.5227,0,0,0,0,0,0,4.4915,4.4922,4.4996,4.4999,4.4942,4.4972,4.4977,4.4995,4.5017,4.5019,4.4994,4.4991,4.5035,4.504,4.5046,4.5121,4.5057,4.506,4.5062,4.5223,4.5225,4.5228,0,0,0,0,0,0,4.4913,4.4922,4.4995,4.496,4.4969,4.4976,4.4997,4.4997,4.501,4.5021,4.5022,4.5006,4.5034,4.5041,4.509,4.5122,4.5062,4.5065,4.522,4.5223,4.5227,4.5269,0,0,0,0,0,0,4.491,4.4921,4.4943,4.4961,4.4971,4.5037,4.4999,4.4999,4.5017,4.5013,4.5033,4.5035,4.5033,4.5085,4.5093,4.5125,4.5068,4.5217,4.5221,4.5225,4.5265,4.5273,4.5281,0,0,0,0,0,4.4906,4.4952,4.4944,4.4953,4.4998,4.5038,4.5044,4.5041,4.5019,4.5042,4.505,4.5034,4.5117,4.509,4.5099,4.5133,4.5215,4.522,4.5225,4.5261,4.5272,4.5281,0,0,0,0,0,0,4.4937,4.4954,4.4945,4.4998,4.5017,4.5034,4.5062,4.5052,4.5077,4.5073,4.5068,4.5073,4.5125,4.5134,4.5103,4.5195,4.5163,4.517,4.5187,4.5197,4.5205,4.5202,4.5071,0,0,0,0,0,4.495,4.498,4.4994,4.504,4.505,4.5055,4.5072,4.5068,4.5088,4.5095,4.5106,4.5126,4.5158,4.5178,4.5206,4.5266,4.5272,4.5295,4.5303,4.5309,4.5316,4.5352,4.5363,4.5244,4.5244,4.5244,0,0,4.4976,4.499,4.5009,4.5046,4.506,4.5094,4.5061,4.5097,4.5122,4.5101,4.5148,4.5158,4.518,4.5236,4.5261,4.5245,4.535,4.5316,4.5321,4.5324,4.5358,4.5369,4.5379,4.5248,4.5247,4.5247,0,0,4.5043,4.5055,4.5096,4.5112,4.5134,4.5138,4.5148,4.5167,4.5173,4.522,4.5206,4.5237,4.5289,4.5307,4.5323,4.5401,4.5389,4.5411,4.5452,4.5488,4.5497,4.5506,4.5536,4.5546,4.5417,4.5417,4.5417,0,4.5073,4.5122,4.5118,4.5156,4.5174,4.5158,4.5201,4.5216,4.5247,4.5261,4.5243,4.5311,4.5325,4.5386,4.5406,4.5418,4.5432,4.5408,4.5496,4.5504,4.5512,4.5541,4.5552,4.542,4.542,4.5419,4.5419,0,4.5159,4.5194,4.5224,4.5256,4.5278,4.5317,4.5322,4.5344,4.534,4.5347,4.5398,4.5414,4.5448,4.5462,4.5457,4.5524,4.5514,4.5496,4.5464,4.5526,4.5553,4.5564,4.5424,4.5423,4.5422,4.5421,0,0,4.5243,4.5275,4.5287,4.5303,4.5328,4.5355,4.5397,4.543,4.5451,4.5474,4.551,4.5557,4.5542,4.556,4.5558,4.5588,4.5653,4.5567,4.5568,4.5584,4.5732,4.5746,4.5758,4.5645,4.5647,4.5649,4.573,0,4.5312,4.5383,4.5383,4.5449,4.5483,4.547,4.5507,4.5528,4.5536,4.5567,4.5576,4.561,4.5586,4.5598,4.5628,4.5639,4.5683,4.5633,4.568,4.5682,4.5676,4.5772,4.5786,4.5862,4.5741,4.5742,4.5744,0,4.5401,4.5429,4.5499,4.5524,4.5538,4.557,4.5603,4.5632,4.5657,4.5661,4.5684,4.5678,4.5722,4.5689,4.5752,4.5718,4.5738,4.5747,4.575,4.5754,4.5717,4.5781,4.5885,4.5897,4.576,4.5759,4.5757,0,4.5458,4.5513,4.5563,4.5577,4.5606,4.563,4.5643,4.5666,4.5688,4.5717,4.5732,4.5765,4.5784,4.5812,4.5817,4.5791,4.5881,4.5847,4.5887,4.5887,4.5906,4.5905,4.6017,4.5917,4.5917,4.5917,4.5917,0,4.5536,4.558,4.5589,4.562,4.567,4.5671,4.5721,4.5732,4.5754,4.5788,4.5779,4.5812,4.5816,4.585,4.5854,4.5908,4.5916,4.5922,4.5922,4.5923,4.5923,4.5936,4.5932,4.592,4.5919,4.5919,4.5918,0,4.5607,4.5615,4.5669,4.5694,4.5701,4.5737,4.5759,4.579,4.5798,4.5842,4.5853,4.5866,4.5907,4.5915,4.5962,4.5965,4.6029,4.6024,4.6021,4.6021,4.6061,4.6058,4.6186,4.6205,4.6092,4.6093,4.6094,0,4.5657,4.569,4.572,4.5742,4.5758,4.5793,4.5816,4.582,4.5844,4.5878,4.5905,4.5945,4.5977,4.6043,4.6058,4.6096,4.6092,4.6135,4.6098,4.6099,4.6095,4.6094,4.6099,4.6142,4.6143,4.6144,4.6145,0,4.5744,4.5748,4.578,4.5816,4.5844,4.5872,4.5898,4.5918,4.5925,4.5954,4.5996,4.6021,4.6071,4.6112,4.615,4.6165,4.6158,4.6157,4.6168,4.617,4.6168,4.6172,4.6042,4.6154,4.6153,4.6152,4.6152,4.6151,4.5808,4.5838,4.5865,4.5903,4.5924,4.595,4.5981,4.5995,4.603,4.6071,4.6071,4.6118,4.6146,4.6197,4.6215,4.6253,4.624,4.6256,4.626,4.6265,4.627,4.6161,4.626,4.626,4.626,4.6259,4.6259,0,4.5897,4.5914,4.5949,4.5988,4.6019,4.6009,4.6039,4.6066,4.6107,4.6134,4.6167,4.6217,4.6257,4.6277,4.6318,4.6345,4.6343,4.6356,4.6354,4.6359,4.6278,4.6265,4.6357,4.6357,4.6357,4.6357,4.6357,4.6357,4.5947,4.6,4.6007,4.6071,4.6088,4.6134,4.6153,4.6178,4.62,4.6256,4.629,4.6303,4.6328,4.6371,4.6409,4.6414,4.643,4.6446,4.6449,4.6374,4.6364,4.6354,4.6342,4.6449,4.6449,4.6527,4.6527,4.6528]},{"header":{"parameterUnit":"m.s-1","parameterCategory":1,"la1":30.2991,"la2":30.254,"lo1":-89.0895,"lo2":-89.0444,"dy":0.0017,"dx":0.0017,"nx":28,"ny":28,"refTime":"2024-08-09T03:00:00:Z","depth":0,"parameterNumber":3,"parameterNumberName":"V-component_of_WINDS"},"data":[0,0,0,0,0,0,0,0,0,0,0,0,0,0,0,0,0,0,0,0,0,0,0,0,0,0,0,0,0,0,0,0,0,0,0,0,0,0,0,0,0,0,0,0,0,0,0,0,0,0,0,0,0,0,0,0,0,0,-3.2864,-3.2863,0,-3.2777,-3.2776,-3.2775,-3.282,-3.2822,-3.2825,-3.2827,-3.2724,-3.272,-3.2715,0,0,0,0,0,0,0,0,0,0,0,0,0,-3.3057,-3.3053,-3.2864,-3.2863,-3.2862,-3.2777,-3.2776,-3.2775,-3.2819,-3.2822,-3.2825,-3.2828,-3.2726,-3.272,-3.2714,0,0,0,0,0,0,0,0,0,0,0,0,0,-3.2971,-3.3052,-3.2864,-3.2874,-3.2874,-3.2778,-3.2776,-3.2775,-3.2819,-3.2822,-3.2826,-3.2829,-3.2728,-3.2721,-3.2713,-3.2598,0,0,-3.2691,-3.2688,0,0,0,0,0,0,0,0,-3.2976,-3.2964,-3.2874,-3.2874,-3.2873,-3.2813,-3.2807,-3.2715,-3.2818,-3.2839,-3.2827,-3.2831,-3.275,-3.2741,-3.2717,-3.2593,-3.2588,-3.269,-3.2686,-3.2683,-3.2681,0,0,0,0,0,0,0,-3.2982,-3.2968,-3.2829,-3.2873,-3.2872,-3.2879,-3.2871,-3.2789,-3.2776,-3.2838,-3.2841,-3.2831,-3.2751,-3.2724,-3.2715,-3.2587,-3.2691,-3.2684,-3.2679,-3.2677,-3.2361,-3.2358,0,0,0,0,0,0,-3.2989,-3.2973,-3.2832,-3.2827,-3.2935,-3.2873,-3.2864,-3.2829,-3.2777,-3.2773,-3.2828,-3.2833,-3.2735,-3.2723,-3.2711,-3.257,-3.2683,-3.2676,-3.2672,-3.2365,-3.2361,-3.2356,0,0,0,0,0,0,-3.2993,-3.2976,-3.2836,-3.2901,-3.2884,-3.2866,-3.2826,-3.2825,-3.2799,-3.277,-3.2766,-3.2804,-3.2737,-3.2722,-3.2626,-3.2568,-3.2673,-3.2666,-3.237,-3.2364,-3.2358,-3.2289,0,0,0,0,0,0,-3.2999,-3.2978,-3.2936,-3.29,-3.288,-3.2755,-3.2823,-3.2821,-3.2787,-3.2793,-3.2746,-3.2741,-3.2739,-3.2637,-3.2619,-3.2559,-3.266,-3.2375,-3.2367,-3.236,-3.2296,-3.2281,-3.2269,0,0,0,0,0,-3.3005,-3.2917,-3.2934,-3.2916,-3.2828,-3.2752,-3.274,-3.2743,-3.2783,-3.2738,-3.272,-3.2743,-3.2578,-3.2627,-3.2607,-3.2544,-3.2379,-3.237,-3.2361,-3.2302,-3.2284,-3.2269,0,0,0,0,0,0,-3.2942,-3.2913,-3.293,-3.2829,-3.2793,-3.276,-3.2704,-3.2724,-3.2672,-3.2679,-3.2681,-3.267,-3.257,-3.2548,-3.2603,-3.2428,-3.2484,-3.247,-3.2446,-3.2429,-3.2415,-3.2421,-3.2654,0,0,0,0,0,-3.2918,-3.2862,-3.2838,-3.275,-3.2732,-3.2721,-3.2688,-3.2694,-3.2655,-3.2638,-3.2613,-3.257,-3.2509,-3.2468,-3.241,-3.2295,-3.2283,-3.2242,-3.2228,-3.2217,-3.2203,-3.2138,-3.2119,-3.2327,-3.2327,-3.2327,0,0,-3.2863,-3.2841,-3.2805,-3.2737,-3.271,-3.2648,-3.2708,-3.264,-3.2593,-3.2627,-3.2536,-3.2515,-3.2468,-3.2362,-3.2313,-3.234,-3.2144,-3.2205,-3.2197,-3.2189,-3.2127,-3.2107,-3.209,-3.2321,-3.2322,-3.2323,0,0,-3.2734,-3.2713,-3.2637,-3.261,-3.257,-3.2564,-3.2546,-3.251,-3.2499,-3.2409,-3.2432,-3.2374,-3.2269,-3.2234,-3.2203,-3.2062,-3.2079,-3.2043,-3.1968,-3.1905,-3.1888,-3.1873,-3.182,-3.1801,-3.2031,-3.203,-3.203,0,-3.267,-3.2583,-3.2594,-3.2526,-3.2493,-3.2527,-3.2447,-3.2419,-3.236,-3.2335,-3.2367,-3.2236,-3.2207,-3.2092,-3.2058,-3.2032,-3.2008,-3.2046,-3.1891,-3.1876,-3.1862,-3.1811,-3.1791,-3.2026,-3.2026,-3.2027,-3.2027,0,-3.2506,-3.2444,-3.2387,-3.2335,-3.2297,-3.2223,-3.2219,-3.2178,-3.2188,-3.2177,-3.2083,-3.205,-3.1985,-3.1959,-3.1965,-3.1844,-3.1861,-3.1892,-3.1947,-3.1838,-3.1789,-3.177,-3.202,-3.2021,-3.2023,-3.2024,0,0,-3.233,-3.2287,-3.2265,-3.2242,-3.2201,-3.2151,-3.2078,-3.202,-3.1983,-3.1942,-3.1877,-3.1789,-3.1817,-3.1781,-3.1785,-3.1729,-3.1616,-3.1766,-3.1765,-3.1736,-3.1476,-3.145,-3.1428,-3.163,-3.1626,-3.1623,-3.1478,0,-3.2195,-3.2072,-3.208,-3.1961,-3.1903,-3.1934,-3.187,-3.1836,-3.1824,-3.1769,-3.1755,-3.1691,-3.1736,-3.1714,-3.1661,-3.1641,-3.1563,-3.1652,-3.1564,-3.1561,-3.1572,-3.1403,-3.1376,-3.1241,-3.146,-3.1457,-3.1455,0,-3.202,-3.1978,-3.1855,-3.1823,-3.1799,-3.1741,-3.1687,-3.1637,-3.1597,-3.1593,-3.1554,-3.1567,-3.1488,-3.1549,-3.1438,-3.1498,-3.1463,-3.1448,-3.1443,-3.1431,-3.1498,-3.1383,-3.1198,-3.1176,-3.1425,-3.1428,-3.143,0,-3.1901,-3.1812,-3.1727,-3.1706,-3.1667,-3.1626,-3.1607,-3.1572,-3.1536,-3.1488,-3.1464,-3.1406,-3.1373,-3.1326,-3.132,-3.1366,-3.1208,-3.1268,-3.1197,-3.1197,-3.1159,-3.116,-3.0962,-3.1143,-3.1143,-3.1143,-3.1144,0,-3.1747,-3.1669,-3.1673,-3.162,-3.1533,-3.1543,-3.1455,-3.144,-3.1409,-3.135,-3.1373,-3.1316,-3.1315,-3.1256,-3.1252,-3.1159,-3.1144,-3.1135,-3.1133,-3.113,-3.1131,-3.1104,-3.1112,-3.1138,-3.1139,-3.114,-3.1141,0,-3.1596,-3.1597,-3.1505,-3.1478,-3.1469,-3.1406,-3.138,-3.1328,-3.132,-3.1245,-3.1228,-3.1213,-3.1145,-3.1138,-3.1057,-3.1053,-3.094,-3.0951,-3.0955,-3.0955,-3.0883,-3.0888,-3.0657,-3.0625,-3.083,-3.0828,-3.0827,0,-3.1497,-3.1438,-3.1406,-3.1371,-3.1351,-3.1294,-3.1258,-3.1265,-3.1227,-3.1178,-3.113,-3.1066,-3.1014,-3.0903,-3.0882,-3.082,-3.0827,-3.075,-3.0817,-3.0815,-3.0821,-3.0823,-3.0815,-3.0735,-3.0733,-3.0731,-3.073,0,-3.1318,-3.1322,-3.1272,-3.1222,-3.1181,-3.1141,-3.1103,-3.1072,-3.1074,-3.1028,-3.0962,-3.0922,-3.0842,-3.0775,-3.0715,-3.069,-3.0708,-3.071,-3.0689,-3.0683,-3.0686,-3.068,-3.0915,-3.0714,-3.0715,-3.0717,-3.0718,-3.0718,-3.1187,-3.1136,-3.1106,-3.105,-3.1024,-3.0988,-3.0938,-3.0925,-3.0872,-3.081,-3.0817,-3.0741,-3.0702,-3.0623,-3.0595,-3.0533,-3.0558,-3.0529,-3.0521,-3.0512,-3.0504,-3.0701,-3.0522,-3.0523,-3.0523,-3.0524,-3.0524,0,-3.1007,-3.099,-3.0939,-3.0888,-3.0842,-3.087,-3.083,-3.0789,-3.0724,-3.0689,-3.0639,-3.0561,-3.0497,-3.0473,-3.0409,-3.0364,-3.037,-3.0347,-3.0347,-3.0341,-3.0487,-3.0509,-3.0343,-3.0343,-3.0343,-3.0343,-3.0343,-3.0343,-3.0907,-3.0822,-3.0822,-3.0723,-3.0706,-3.0637,-3.0611,-3.0577,-3.0549,-3.0462,-3.0411,-3.0398,-3.0365,-3.03,-3.0241,-3.0235,-3.0208,-3.018,-3.0177,-3.0313,-3.0331,-3.0348,-3.0369,-3.0176,-3.0175,-3.0036,-3.0035,-3.0034]}]]